Year,Month,Day,Hour,Minute,Value (Times are PST for temperature in C)
2012,07,12,00,00,17.80
2012,07,12,00,01,17.80
2012,07,12,00,02,17.80
2012,07,12,00,03,17.70
2012,07,12,00,04,17.70
2012,07,12,00,05,17.70
2012,07,12,00,06,17.60
2012,07,12,00,07,17.60
2012,07,12,00,08,17.50
2012,07,12,00,09,17.50
2012,07,12,00,10,17.40
2012,07,12,00,11,17.40
2012,07,12,00,12,17.30
2012,07,12,00,13,17.30
2012,07,12,00,14,17.30
2012,07,12,00,15,17.30
2012,07,12,00,16,17.30
2012,07,12,00,17,17.20
2012,07,12,00,18,17.20
2012,07,12,00,19,17.20
2012,07,12,00,20,17.20
2012,07,12,00,21,17.20
2012,07,12,00,22,17.20
2012,07,12,00,23,17.20
2012,07,12,00,24,17.20
2012,07,12,00,25,17.20
2012,07,12,00,26,17.20
2012,07,12,00,27,17.10
2012,07,12,00,28,17.10
2012,07,12,00,29,17.10
2012,07,12,00,30,17.10
2012,07,12,00,31,17.10
2012,07,12,00,32,17.10
2012,07,12,00,33,17.10
2012,07,12,00,34,17.10
2012,07,12,00,35,17.10
2012,07,12,00,36,17.00
2012,07,12,00,37,17.00
2012,07,12,00,38,16.90
2012,07,12,00,39,16.90
2012,07,12,00,40,16.90
2012,07,12,00,41,16.80
2012,07,12,00,42,16.80
2012,07,12,00,43,16.80
2012,07,12,00,44,16.70
2012,07,12,00,45,16.70
2012,07,12,00,46,16.60
2012,07,12,00,47,16.60
2012,07,12,00,48,16.50
2012,07,12,00,49,16.40
2012,07,12,00,50,16.40
2012,07,12,00,51,16.30
2012,07,12,00,52,16.30
2012,07,12,00,53,16.30
2012,07,12,00,54,16.20
2012,07,12,00,55,16.20
2012,07,12,00,56,16.20
2012,07,12,00,57,16.20
2012,07,12,00,58,16.10
2012,07,12,00,59,16.10
2012,07,12,01,00,16.10
2012,07,12,01,01,16.10
2012,07,12,01,02,16.00
2012,07,12,01,03,16.10
2012,07,12,01,04,16.10
2012,07,12,01,05,16.10
2012,07,12,01,06,16.00
2012,07,12,01,07,16.00
2012,07,12,01,08,16.00
2012,07,12,01,09,16.00
2012,07,12,01,10,16.00
2012,07,12,01,11,16.00
2012,07,12,01,12,15.90
2012,07,12,01,13,15.90
2012,07,12,01,14,15.90
2012,07,12,01,15,15.90
2012,07,12,01,16,15.90
2012,07,12,01,17,15.80
2012,07,12,01,18,15.80
2012,07,12,01,19,15.80
2012,07,12,01,20,15.70
2012,07,12,01,21,15.70
2012,07,12,01,22,15.70
2012,07,12,01,23,15.70
2012,07,12,01,24,15.70
2012,07,12,01,25,15.80
2012,07,12,01,26,15.90
2012,07,12,01,27,15.90
2012,07,12,01,28,15.90
2012,07,12,01,29,15.90
2012,07,12,01,30,15.90
2012,07,12,01,31,15.90
2012,07,12,01,32,15.80
2012,07,12,01,33,15.80
2012,07,12,01,34,15.80
2012,07,12,01,35,15.70
2012,07,12,01,36,15.80
2012,07,12,01,37,15.80
2012,07,12,01,38,15.90
2012,07,12,01,39,15.90
2012,07,12,01,40,15.90
2012,07,12,01,41,16.00
2012,07,12,01,42,16.00
2012,07,12,01,43,16.00
2012,07,12,01,44,16.00
2012,07,12,01,45,15.90
2012,07,12,01,46,15.90
2012,07,12,01,47,15.90
2012,07,12,01,48,15.80
2012,07,12,01,49,15.80
2012,07,12,01,50,15.70
2012,07,12,01,51,15.70
2012,07,12,01,52,15.70
2012,07,12,01,53,15.60
2012,07,12,01,54,15.60
2012,07,12,01,55,15.60
2012,07,12,01,56,15.50
2012,07,12,01,57,15.60
2012,07,12,01,58,15.50
2012,07,12,01,59,15.60
2012,07,12,02,00,15.60
2012,07,12,02,01,15.60
2012,07,12,02,02,15.60
2012,07,12,02,03,15.60
2012,07,12,02,04,15.60
2012,07,12,02,05,15.60
2012,07,12,02,06,15.70
2012,07,12,02,07,15.70
2012,07,12,02,08,15.70
2012,07,12,02,09,15.70
2012,07,12,02,10,15.70
2012,07,12,02,11,15.70
2012,07,12,02,12,15.80
2012,07,12,02,13,15.80
2012,07,12,02,14,15.90
2012,07,12,02,15,16.00
2012,07,12,02,16,16.00
2012,07,12,02,17,16.10
2012,07,12,02,18,16.20
2012,07,12,02,19,16.20
2012,07,12,02,20,16.30
2012,07,12,02,21,16.30
2012,07,12,02,22,16.30
2012,07,12,02,23,16.30
2012,07,12,02,24,16.30
2012,07,12,02,25,16.20
2012,07,12,02,26,16.20
2012,07,12,02,27,16.20
2012,07,12,02,28,16.20
2012,07,12,02,29,16.10
2012,07,12,02,30,16.10
2012,07,12,02,31,16.10
2012,07,12,02,32,16.10
2012,07,12,02,33,16.10
2012,07,12,02,34,16.00
2012,07,12,02,35,16.00
2012,07,12,02,36,16.00
2012,07,12,02,37,15.90
2012,07,12,02,38,15.90
2012,07,12,02,39,15.90
2012,07,12,02,40,15.80
2012,07,12,02,41,15.80
2012,07,12,02,42,15.80
2012,07,12,02,43,15.70
2012,07,12,02,44,15.70
2012,07,12,02,45,15.70
2012,07,12,02,46,15.60
2012,07,12,02,47,15.60
2012,07,12,02,48,15.60
2012,07,12,02,49,15.50
2012,07,12,02,50,15.50
2012,07,12,02,51,15.40
2012,07,12,02,52,15.40
2012,07,12,02,53,15.40
2012,07,12,02,54,15.40
2012,07,12,02,55,15.40
2012,07,12,02,56,15.40
2012,07,12,02,57,15.40
2012,07,12,02,58,15.50
2012,07,12,02,59,15.60
2012,07,12,03,00,15.60
2012,07,12,03,01,15.70
2012,07,12,03,02,15.70
2012,07,12,03,03,15.80
2012,07,12,03,04,15.80
2012,07,12,03,05,15.90
2012,07,12,03,06,15.90
2012,07,12,03,07,15.90
2012,07,12,03,08,16.00
2012,07,12,03,09,16.00
2012,07,12,03,10,16.00
2012,07,12,03,11,16.00
2012,07,12,03,12,16.00
2012,07,12,03,13,16.00
2012,07,12,03,14,16.10
2012,07,12,03,15,16.00
2012,07,12,03,16,16.10
2012,07,12,03,17,16.10
2012,07,12,03,18,16.10
2012,07,12,03,19,16.10
2012,07,12,03,20,16.10
2012,07,12,03,21,16.10
2012,07,12,03,22,16.10
2012,07,12,03,23,16.20
2012,07,12,03,24,16.20
2012,07,12,03,25,16.20
2012,07,12,03,26,16.20
2012,07,12,03,27,16.20
2012,07,12,03,28,16.20
2012,07,12,03,29,16.20
2012,07,12,03,30,16.20
2012,07,12,03,31,16.20
2012,07,12,03,32,16.20
2012,07,12,03,33,16.20
2012,07,12,03,34,16.20
2012,07,12,03,35,16.20
2012,07,12,03,36,16.20
2012,07,12,03,37,16.20
2012,07,12,03,38,16.20
2012,07,12,03,39,16.20
2012,07,12,03,40,16.20
2012,07,12,03,41,16.20
2012,07,12,03,42,16.20
2012,07,12,03,43,16.20
2012,07,12,03,44,16.20
2012,07,12,03,45,16.20
2012,07,12,03,46,16.30
2012,07,12,03,47,16.30
2012,07,12,03,48,16.30
2012,07,12,03,49,16.30
2012,07,12,03,50,16.20
2012,07,12,03,51,16.20
2012,07,12,03,52,16.20
2012,07,12,03,53,16.20
2012,07,12,03,54,16.10
2012,07,12,03,55,16.10
2012,07,12,03,56,16.10
2012,07,12,03,57,16.00
2012,07,12,03,58,16.00
2012,07,12,03,59,16.00
2012,07,12,04,00,16.00
2012,07,12,04,01,16.00
2012,07,12,04,02,16.00
2012,07,12,04,03,16.00
2012,07,12,04,04,16.10
2012,07,12,04,05,16.10
2012,07,12,04,06,16.10
2012,07,12,04,07,16.10
2012,07,12,04,08,16.10
2012,07,12,04,09,16.10
2012,07,12,04,10,16.20
2012,07,12,04,11,16.20
2012,07,12,04,12,16.20
2012,07,12,04,13,16.20
2012,07,12,04,14,16.20
2012,07,12,04,15,16.20
2012,07,12,04,16,16.30
2012,07,12,04,17,16.30
2012,07,12,04,18,16.30
2012,07,12,04,19,16.30
2012,07,12,04,20,16.30
2012,07,12,04,21,16.30
2012,07,12,04,22,16.40
2012,07,12,04,23,16.40
2012,07,12,04,24,16.40
2012,07,12,04,25,16.30
2012,07,12,04,26,16.30
2012,07,12,04,27,16.30
2012,07,12,04,28,16.30
2012,07,12,04,29,16.30
2012,07,12,04,30,16.20
2012,07,12,04,31,16.20
2012,07,12,04,32,16.20
2012,07,12,04,33,16.20
2012,07,12,04,34,16.20
2012,07,12,04,35,16.20
2012,07,12,04,36,16.20
2012,07,12,04,37,16.20
2012,07,12,04,38,16.20
2012,07,12,04,39,16.20
2012,07,12,04,40,16.20
2012,07,12,04,41,16.20
2012,07,12,04,42,16.20
2012,07,12,04,43,16.30
2012,07,12,04,44,16.30
2012,07,12,04,45,16.30
2012,07,12,04,46,16.30
2012,07,12,04,47,16.30
2012,07,12,04,48,16.30
2012,07,12,04,49,16.30
2012,07,12,04,50,16.30
2012,07,12,04,51,16.30
2012,07,12,04,52,16.30
2012,07,12,04,53,16.40
2012,07,12,04,54,16.40
2012,07,12,04,55,16.40
2012,07,12,04,56,16.40
2012,07,12,04,57,16.40
2012,07,12,04,58,16.40
2012,07,12,04,59,16.40
2012,07,12,05,00,16.40
2012,07,12,05,01,16.30
2012,07,12,05,02,16.30
2012,07,12,05,03,16.30
2012,07,12,05,04,16.30
2012,07,12,05,05,16.40
2012,07,12,05,06,16.30
2012,07,12,05,07,16.40
2012,07,12,05,08,16.40
2012,07,12,05,09,16.40
2012,07,12,05,10,16.40
2012,07,12,05,11,16.40
2012,07,12,05,12,16.40
2012,07,12,05,13,16.40
2012,07,12,05,14,16.40
2012,07,12,05,15,16.40
2012,07,12,05,16,16.40
2012,07,12,05,17,16.40
2012,07,12,05,18,16.40
2012,07,12,05,19,16.40
2012,07,12,05,20,16.40
2012,07,12,05,21,16.40
2012,07,12,05,22,16.40
2012,07,12,05,23,16.40
2012,07,12,05,24,16.40
2012,07,12,05,25,16.40
2012,07,12,05,26,16.40
2012,07,12,05,27,16.30
2012,07,12,05,28,16.30
2012,07,12,05,29,16.30
2012,07,12,05,30,16.30
2012,07,12,05,31,16.30
2012,07,12,05,32,16.30
2012,07,12,05,33,16.30
2012,07,12,05,34,16.30
2012,07,12,05,35,16.30
2012,07,12,05,36,16.30
2012,07,12,05,37,16.30
2012,07,12,05,38,16.30
2012,07,12,05,39,16.30
2012,07,12,05,40,16.30
2012,07,12,05,41,16.30
2012,07,12,05,42,16.30
2012,07,12,05,43,16.30
2012,07,12,05,44,16.30
2012,07,12,05,45,16.30
2012,07,12,05,46,16.30
2012,07,12,05,47,16.30
2012,07,12,05,48,16.30
2012,07,12,05,49,16.30
2012,07,12,05,50,16.30
2012,07,12,05,51,16.30
2012,07,12,05,52,16.30
2012,07,12,05,53,16.30
2012,07,12,05,54,16.30
2012,07,12,05,55,16.30
2012,07,12,05,56,16.30
2012,07,12,05,57,16.30
2012,07,12,05,58,16.30
2012,07,12,05,59,16.30
2012,07,12,06,00,16.30
2012,07,12,06,01,16.30
2012,07,12,06,02,16.30
2012,07,12,06,03,16.30
2012,07,12,06,04,16.30
2012,07,12,06,05,16.30
2012,07,12,06,06,16.30
2012,07,12,06,07,16.30
2012,07,12,06,08,16.30
2012,07,12,06,09,16.30
2012,07,12,06,10,16.30
2012,07,12,06,11,16.30
2012,07,12,06,12,16.30
2012,07,12,06,13,16.30
2012,07,12,06,14,16.30
2012,07,12,06,15,16.30
2012,07,12,06,16,16.30
2012,07,12,06,17,16.30
2012,07,12,06,18,16.30
2012,07,12,06,19,16.30
2012,07,12,06,20,16.30
2012,07,12,06,21,16.30
2012,07,12,06,22,16.30
2012,07,12,06,23,16.30
2012,07,12,06,24,16.30
2012,07,12,06,25,16.40
2012,07,12,06,26,16.40
2012,07,12,06,27,16.40
2012,07,12,06,28,16.40
2012,07,12,06,29,16.40
2012,07,12,06,30,16.40
2012,07,12,06,31,16.50
2012,07,12,06,32,16.50
2012,07,12,06,33,16.50
2012,07,12,06,34,16.60
2012,07,12,06,35,16.60
2012,07,12,06,36,16.60
2012,07,12,06,37,16.70
2012,07,12,06,38,16.70
2012,07,12,06,39,16.70
2012,07,12,06,40,16.70
2012,07,12,06,41,16.80
2012,07,12,06,42,16.80
2012,07,12,06,43,16.80
2012,07,12,06,44,16.80
2012,07,12,06,45,16.80
2012,07,12,06,46,16.90
2012,07,12,06,47,16.90
2012,07,12,06,48,16.90
2012,07,12,06,49,17.00
2012,07,12,06,50,17.00
2012,07,12,06,51,17.00
2012,07,12,06,52,17.10
2012,07,12,06,53,17.10
2012,07,12,06,54,17.10
2012,07,12,06,55,17.20
2012,07,12,06,56,17.20
2012,07,12,06,57,17.20
2012,07,12,06,58,17.20
2012,07,12,06,59,17.30
2012,07,12,07,00,17.30
2012,07,12,07,01,17.30
2012,07,12,07,02,17.40
2012,07,12,07,03,17.40
2012,07,12,07,04,17.40
2012,07,12,07,05,17.40
2012,07,12,07,06,17.50
2012,07,12,07,07,17.50
2012,07,12,07,08,17.50
2012,07,12,07,09,17.60
2012,07,12,07,10,17.60
2012,07,12,07,11,17.60
2012,07,12,07,12,17.60
2012,07,12,07,13,17.60
2012,07,12,07,14,17.60
2012,07,12,07,15,17.60
2012,07,12,07,16,17.70
2012,07,12,07,17,17.70
2012,07,12,07,18,17.70
2012,07,12,07,19,17.70
2012,07,12,07,20,17.70
2012,07,12,07,21,17.70
2012,07,12,07,22,17.70
2012,07,12,07,23,17.80
2012,07,12,07,24,17.80
2012,07,12,07,25,17.80
2012,07,12,07,26,17.80
2012,07,12,07,27,17.80
2012,07,12,07,28,17.80
2012,07,12,07,29,17.90
2012,07,12,07,30,17.90
2012,07,12,07,31,17.90
2012,07,12,07,32,17.90
2012,07,12,07,33,18.00
2012,07,12,07,34,18.00
2012,07,12,07,35,18.00
2012,07,12,07,36,18.10
2012,07,12,07,37,18.10
2012,07,12,07,38,18.10
2012,07,12,07,39,18.10
2012,07,12,07,40,18.20
2012,07,12,07,41,18.20
2012,07,12,07,42,18.20
2012,07,12,07,43,18.30
2012,07,12,07,44,18.30
2012,07,12,07,45,18.30
2012,07,12,07,46,18.30
2012,07,12,07,47,18.40
2012,07,12,07,48,18.40
2012,07,12,07,49,18.50
2012,07,12,07,50,18.50
2012,07,12,07,51,18.60
2012,07,12,07,52,18.60
2012,07,12,07,53,18.70
2012,07,12,07,54,18.70
2012,07,12,07,55,18.70
2012,07,12,07,56,18.80
2012,07,12,07,57,18.80
2012,07,12,07,58,18.80
2012,07,12,07,59,18.80
2012,07,12,08,00,18.90
2012,07,12,08,01,18.90
2012,07,12,08,02,18.90
2012,07,12,08,03,18.90
2012,07,12,08,04,19.00
2012,07,12,08,05,19.00
2012,07,12,08,06,19.00
2012,07,12,08,07,19.10
2012,07,12,08,08,19.10
2012,07,12,08,09,19.10
2012,07,12,08,10,19.10
2012,07,12,08,11,19.10
2012,07,12,08,12,19.20
2012,07,12,08,13,19.20
2012,07,12,08,14,19.20
2012,07,12,08,15,19.20
2012,07,12,08,16,19.20
2012,07,12,08,17,19.20
2012,07,12,08,18,19.20
2012,07,12,08,19,19.20
2012,07,12,08,20,19.20
2012,07,12,08,21,19.20
2012,07,12,08,22,19.30
2012,07,12,08,23,19.30
2012,07,12,08,24,19.30
2012,07,12,08,25,19.40
2012,07,12,08,26,19.40
2012,07,12,08,27,19.40
2012,07,12,08,28,19.40
2012,07,12,08,29,19.50
2012,07,12,08,30,19.50
2012,07,12,08,31,19.60
2012,07,12,08,32,19.60
2012,07,12,08,33,19.60
2012,07,12,08,34,19.60
2012,07,12,08,35,19.60
2012,07,12,08,36,19.70
2012,07,12,08,37,19.60
2012,07,12,08,38,19.60
2012,07,12,08,39,19.70
2012,07,12,08,40,19.70
2012,07,12,08,41,19.70
2012,07,12,08,42,19.60
2012,07,12,08,43,19.60
2012,07,12,08,44,19.60
2012,07,12,08,45,19.70
2012,07,12,08,46,19.70
2012,07,12,08,47,19.70
2012,07,12,08,48,19.70
2012,07,12,08,49,19.70
2012,07,12,08,50,19.70
2012,07,12,08,51,19.70
2012,07,12,08,52,19.80
2012,07,12,08,53,19.80
2012,07,12,08,54,19.90
2012,07,12,08,55,19.90
2012,07,12,08,56,20.00
2012,07,12,08,57,20.00
2012,07,12,08,58,20.00
2012,07,12,08,59,19.90
2012,07,12,09,00,19.90
2012,07,12,09,01,19.90
2012,07,12,09,02,19.80
2012,07,12,09,03,19.80
2012,07,12,09,04,19.80
2012,07,12,09,05,19.80
2012,07,12,09,06,19.70
2012,07,12,09,07,19.80
2012,07,12,09,08,19.90
2012,07,12,09,09,19.90
2012,07,12,09,10,19.90
2012,07,12,09,11,20.00
2012,07,12,09,12,20.10
2012,07,12,09,13,20.10
2012,07,12,09,14,20.20
2012,07,12,09,15,20.20
2012,07,12,09,16,20.30
2012,07,12,09,17,20.30
2012,07,12,09,18,20.30
2012,07,12,09,19,20.30
2012,07,12,09,20,20.20
2012,07,12,09,21,20.20
2012,07,12,09,22,20.20
2012,07,12,09,23,20.20
2012,07,12,09,24,20.20
2012,07,12,09,25,20.20
2012,07,12,09,26,20.20
2012,07,12,09,27,20.20
2012,07,12,09,28,20.20
2012,07,12,09,29,20.20
2012,07,12,09,30,20.20
2012,07,12,09,31,20.20
2012,07,12,09,32,20.10
2012,07,12,09,33,20.00
2012,07,12,09,34,20.00
2012,07,12,09,35,19.90
2012,07,12,09,36,19.80
2012,07,12,09,37,19.80
2012,07,12,09,38,19.80
2012,07,12,09,39,19.80
2012,07,12,09,40,19.80
2012,07,12,09,41,19.80
2012,07,12,09,42,19.80
2012,07,12,09,43,19.80
2012,07,12,09,44,19.90
2012,07,12,09,45,19.90
2012,07,12,09,46,20.00
2012,07,12,09,47,20.00
2012,07,12,09,48,20.10
2012,07,12,09,49,20.10
2012,07,12,09,50,20.20
2012,07,12,09,51,20.20
2012,07,12,09,52,20.20
2012,07,12,09,53,20.20
2012,07,12,09,54,20.20
2012,07,12,09,55,20.30
2012,07,12,09,56,20.30
2012,07,12,09,57,20.40
2012,07,12,09,58,20.40
2012,07,12,09,59,20.40
2012,07,12,10,00,20.50
2012,07,12,10,01,20.50
2012,07,12,10,02,20.60
2012,07,12,10,03,20.60
2012,07,12,10,04,20.60
2012,07,12,10,05,20.60
2012,07,12,10,06,20.60
2012,07,12,10,07,20.60
2012,07,12,10,08,20.60
2012,07,12,10,09,20.70
2012,07,12,10,10,20.70
2012,07,12,10,11,20.70
2012,07,12,10,12,20.70
2012,07,12,10,13,20.70
2012,07,12,10,14,20.70
2012,07,12,10,15,20.70
2012,07,12,10,16,20.70
2012,07,12,10,17,20.70
2012,07,12,10,18,20.70
2012,07,12,10,19,20.80
2012,07,12,10,20,20.80
2012,07,12,10,21,20.80
2012,07,12,10,22,20.90
2012,07,12,10,23,20.90
2012,07,12,10,24,21.00
2012,07,12,10,25,21.00
2012,07,12,10,26,21.00
2012,07,12,10,27,21.10
2012,07,12,10,28,21.10
2012,07,12,10,29,21.10
2012,07,12,10,30,21.20
2012,07,12,10,31,21.30
2012,07,12,10,32,21.30
2012,07,12,10,33,21.40
2012,07,12,10,34,21.50
2012,07,12,10,35,21.60
2012,07,12,10,36,21.60
2012,07,12,10,37,21.70
2012,07,12,10,38,21.80
2012,07,12,10,39,21.80
2012,07,12,10,40,21.90
2012,07,12,10,41,22.00
2012,07,12,10,42,22.00
2012,07,12,10,43,21.90
2012,07,12,10,44,21.90
2012,07,12,10,45,21.90
2012,07,12,10,46,21.80
2012,07,12,10,47,21.80
2012,07,12,10,48,21.70
2012,07,12,10,49,21.60
2012,07,12,10,50,21.50
2012,07,12,10,51,21.40
2012,07,12,10,52,21.40
2012,07,12,10,53,21.40
2012,07,12,10,54,21.30
2012,07,12,10,55,21.40
2012,07,12,10,56,21.40
2012,07,12,10,57,21.40
2012,07,12,10,58,21.40
2012,07,12,10,59,21.40
2012,07,12,11,00,21.40
2012,07,12,11,01,21.30
2012,07,12,11,02,21.20
2012,07,12,11,03,21.20
2012,07,12,11,04,21.20
2012,07,12,11,05,21.20
2012,07,12,11,06,21.20
2012,07,12,11,07,21.20
2012,07,12,11,08,21.20
2012,07,12,11,09,21.20
2012,07,12,11,10,21.30
2012,07,12,11,11,21.30
2012,07,12,11,12,21.30
2012,07,12,11,13,21.30
2012,07,12,11,14,21.20
2012,07,12,11,15,21.20
2012,07,12,11,16,21.20
2012,07,12,11,17,21.20
2012,07,12,11,18,21.10
2012,07,12,11,19,21.10
2012,07,12,11,20,21.00
2012,07,12,11,21,21.00
2012,07,12,11,22,21.00
2012,07,12,11,23,20.90
2012,07,12,11,24,20.90
2012,07,12,11,25,20.80
2012,07,12,11,26,20.80
2012,07,12,11,27,20.90
2012,07,12,11,28,20.90
2012,07,12,11,29,20.90
2012,07,12,11,30,21.00
2012,07,12,11,31,21.00
2012,07,12,11,32,21.10
2012,07,12,11,33,21.20
2012,07,12,11,34,21.20
2012,07,12,11,35,21.20
2012,07,12,11,36,21.20
2012,07,12,11,37,21.30
2012,07,12,11,38,21.30
2012,07,12,11,39,21.30
2012,07,12,11,40,21.30
2012,07,12,11,41,21.30
2012,07,12,11,42,21.30
2012,07,12,11,43,21.30
2012,07,12,11,44,21.30
2012,07,12,11,45,21.30
2012,07,12,11,46,21.30
2012,07,12,11,47,21.30
2012,07,12,11,48,21.20
2012,07,12,11,49,21.10
2012,07,12,11,50,21.10
2012,07,12,11,51,21.10
2012,07,12,11,52,21.10
2012,07,12,11,53,21.10
2012,07,12,11,54,21.10
2012,07,12,11,55,21.00
2012,07,12,11,56,21.00
2012,07,12,11,57,21.10
2012,07,12,11,58,21.10
2012,07,12,11,59,21.20
2012,07,12,12,00,21.20
2012,07,12,12,01,21.30
2012,07,12,12,02,21.30
2012,07,12,12,03,21.30
2012,07,12,12,04,21.30
2012,07,12,12,05,21.40
2012,07,12,12,06,21.40
2012,07,12,12,07,21.50
2012,07,12,12,08,21.50
2012,07,12,12,09,21.50
2012,07,12,12,10,21.50
2012,07,12,12,11,21.50
2012,07,12,12,12,21.60
2012,07,12,12,13,21.60
2012,07,12,12,14,21.60
2012,07,12,12,15,21.60
2012,07,12,12,16,21.60
2012,07,12,12,17,21.60
2012,07,12,12,18,21.60
2012,07,12,12,19,21.60
2012,07,12,12,20,21.60
2012,07,12,12,21,21.60
2012,07,12,12,22,21.70
2012,07,12,12,23,21.70
2012,07,12,12,24,21.70
2012,07,12,12,25,21.80
2012,07,12,12,26,21.80
2012,07,12,12,27,21.90
2012,07,12,12,28,21.90
2012,07,12,12,29,21.90
2012,07,12,12,30,21.90
2012,07,12,12,31,21.90
2012,07,12,12,32,21.80
2012,07,12,12,33,21.80
2012,07,12,12,34,21.80
2012,07,12,12,35,21.80
2012,07,12,12,36,21.80
2012,07,12,12,37,21.80
2012,07,12,12,38,21.80
2012,07,12,12,39,21.80
2012,07,12,12,40,21.90
2012,07,12,12,41,21.90
2012,07,12,12,42,21.90
2012,07,12,12,43,21.80
2012,07,12,12,44,21.80
2012,07,12,12,45,21.80
2012,07,12,12,46,21.70
2012,07,12,12,47,21.70
2012,07,12,12,48,21.70
2012,07,12,12,49,21.80
2012,07,12,12,50,21.80
2012,07,12,12,51,21.80
2012,07,12,12,52,21.90
2012,07,12,12,53,21.90
2012,07,12,12,54,21.90
2012,07,12,12,55,22.00
2012,07,12,12,56,22.10
2012,07,12,12,57,22.10
2012,07,12,12,58,22.10
2012,07,12,12,59,22.20
2012,07,12,13,00,22.20
2012,07,12,13,01,22.20
2012,07,12,13,02,22.20
2012,07,12,13,03,22.20
2012,07,12,13,04,22.20
2012,07,12,13,05,22.30
2012,07,12,13,06,22.30
2012,07,12,13,07,22.50
2012,07,12,13,08,22.60
2012,07,12,13,09,22.70
2012,07,12,13,10,22.80
2012,07,12,13,11,22.90
2012,07,12,13,12,22.90
2012,07,12,13,13,23.00
2012,07,12,13,14,23.10
2012,07,12,13,15,23.10
2012,07,12,13,16,23.20
2012,07,12,13,17,23.30
2012,07,12,13,18,23.30
2012,07,12,13,19,23.30
2012,07,12,13,20,23.40
2012,07,12,13,21,23.40
2012,07,12,13,22,23.40
2012,07,12,13,23,23.40
2012,07,12,13,24,23.30
2012,07,12,13,25,23.30
2012,07,12,13,26,23.30
2012,07,12,13,27,23.30
2012,07,12,13,28,23.30
2012,07,12,13,29,23.20
2012,07,12,13,30,23.20
2012,07,12,13,31,23.20
2012,07,12,13,32,23.20
2012,07,12,13,33,23.20
2012,07,12,13,34,23.30
2012,07,12,13,35,23.40
2012,07,12,13,36,23.40
2012,07,12,13,37,23.40
2012,07,12,13,38,23.50
2012,07,12,13,39,23.50
2012,07,12,13,40,23.60
2012,07,12,13,41,23.60
2012,07,12,13,42,23.60
2012,07,12,13,43,23.60
2012,07,12,13,44,23.60
2012,07,12,13,45,23.70
2012,07,12,13,46,23.70
2012,07,12,13,47,23.80
2012,07,12,13,48,23.90
2012,07,12,13,49,24.00
2012,07,12,13,50,24.10
2012,07,12,13,51,24.20
2012,07,12,13,52,24.40
2012,07,12,13,53,24.50
2012,07,12,13,54,24.60
2012,07,12,13,55,24.60
2012,07,12,13,56,24.70
2012,07,12,13,57,24.80
2012,07,12,13,58,24.90
2012,07,12,13,59,25.00
2012,07,12,14,00,25.10
2012,07,12,14,01,25.20
2012,07,12,14,02,25.30
2012,07,12,14,03,25.30
2012,07,12,14,04,25.30
2012,07,12,14,05,25.30
2012,07,12,14,06,25.20
2012,07,12,14,07,25.20
2012,07,12,14,08,25.10
2012,07,12,14,09,25.10
2012,07,12,14,10,25.00
2012,07,12,14,11,25.00
2012,07,12,14,12,25.10
2012,07,12,14,13,25.10
2012,07,12,14,14,25.10
2012,07,12,14,15,25.10
2012,07,12,14,16,25.20
2012,07,12,14,17,25.20
2012,07,12,14,18,25.20
2012,07,12,14,19,25.30
2012,07,12,14,20,25.30
2012,07,12,14,21,25.30
2012,07,12,14,22,25.20
2012,07,12,14,23,25.20
2012,07,12,14,24,25.20
2012,07,12,14,25,25.10
2012,07,12,14,26,25.10
2012,07,12,14,27,25.10
2012,07,12,14,28,25.10
2012,07,12,14,29,25.20
2012,07,12,14,30,25.30
2012,07,12,14,31,25.30
2012,07,12,14,32,25.30
2012,07,12,14,33,25.30
2012,07,12,14,34,25.30
2012,07,12,14,35,25.40
2012,07,12,14,36,25.40
2012,07,12,14,37,25.40
2012,07,12,14,38,25.30
2012,07,12,14,39,25.30
2012,07,12,14,40,25.30
2012,07,12,14,41,25.30
2012,07,12,14,42,25.30
2012,07,12,14,43,25.30
2012,07,12,14,44,25.40
2012,07,12,14,45,25.40
2012,07,12,14,46,25.40
2012,07,12,14,47,25.40
2012,07,12,14,48,25.40
2012,07,12,14,49,25.30
2012,07,12,14,50,25.30
2012,07,12,14,51,25.30
2012,07,12,14,52,25.20
2012,07,12,14,53,25.20
2012,07,12,14,54,25.00
2012,07,12,14,55,24.90
2012,07,12,14,56,24.80
2012,07,12,14,57,24.70
2012,07,12,14,58,24.60
2012,07,12,14,59,24.50
2012,07,12,15,00,24.40
2012,07,12,15,01,24.50
2012,07,12,15,02,24.60
2012,07,12,15,03,24.60
2012,07,12,15,04,24.70
2012,07,12,15,05,24.70
2012,07,12,15,06,24.70
2012,07,12,15,07,24.80
2012,07,12,15,08,24.80
2012,07,12,15,09,24.80
2012,07,12,15,10,24.80
2012,07,12,15,11,24.80
2012,07,12,15,12,24.70
2012,07,12,15,13,24.70
2012,07,12,15,14,24.70
2012,07,12,15,15,24.70
2012,07,12,15,16,24.70
2012,07,12,15,17,24.80
2012,07,12,15,18,24.90
2012,07,12,15,19,24.90
2012,07,12,15,20,24.90
2012,07,12,15,21,24.90
2012,07,12,15,22,24.90
2012,07,12,15,23,24.80
2012,07,12,15,24,24.80
2012,07,12,15,25,24.80
2012,07,12,15,26,24.70
2012,07,12,15,27,24.60
2012,07,12,15,28,24.50
2012,07,12,15,29,24.40
2012,07,12,15,30,24.50
2012,07,12,15,31,24.50
2012,07,12,15,32,24.50
2012,07,12,15,33,24.40
2012,07,12,15,34,24.50
2012,07,12,15,35,24.50
2012,07,12,15,36,24.60
2012,07,12,15,37,24.60
2012,07,12,15,38,24.50
2012,07,12,15,39,24.50
2012,07,12,15,40,24.50
2012,07,12,15,41,24.50
2012,07,12,15,42,24.50
2012,07,12,15,43,24.60
2012,07,12,15,44,24.60
2012,07,12,15,45,24.60
2012,07,12,15,46,24.60
2012,07,12,15,47,24.60
2012,07,12,15,48,24.70
2012,07,12,15,49,24.70
2012,07,12,15,50,24.70
2012,07,12,15,51,24.70
2012,07,12,15,52,24.60
2012,07,12,15,53,24.60
2012,07,12,15,54,24.50
2012,07,12,15,55,24.50
2012,07,12,15,56,24.40
2012,07,12,15,57,24.30
2012,07,12,15,58,24.30
2012,07,12,15,59,24.30
2012,07,12,16,00,24.20
2012,07,12,16,01,24.20
2012,07,12,16,02,24.10
2012,07,12,16,03,24.10
2012,07,12,16,04,24.10
2012,07,12,16,05,24.10
2012,07,12,16,06,24.00
2012,07,12,16,07,23.90
2012,07,12,16,08,23.90
2012,07,12,16,09,23.90
2012,07,12,16,10,23.80
2012,07,12,16,11,23.80
2012,07,12,16,12,23.80
2012,07,12,16,13,23.70
2012,07,12,16,14,23.60
2012,07,12,16,15,23.50
2012,07,12,16,16,23.40
2012,07,12,16,17,23.40
2012,07,12,16,18,23.40
2012,07,12,16,19,23.40
2012,07,12,16,20,23.40
2012,07,12,16,21,23.40
2012,07,12,16,22,23.40
2012,07,12,16,23,23.40
2012,07,12,16,24,23.30
2012,07,12,16,25,23.30
2012,07,12,16,26,23.30
2012,07,12,16,27,23.20
2012,07,12,16,28,23.20
2012,07,12,16,29,23.20
2012,07,12,16,30,23.20
2012,07,12,16,31,23.20
2012,07,12,16,32,23.20
2012,07,12,16,33,23.20
2012,07,12,16,34,23.20
2012,07,12,16,35,23.20
2012,07,12,16,36,23.20
2012,07,12,16,37,23.20
2012,07,12,16,38,23.20
2012,07,12,16,39,23.30
2012,07,12,16,40,23.30
2012,07,12,16,41,23.40
2012,07,12,16,42,23.50
2012,07,12,16,43,23.60
2012,07,12,16,44,23.70
2012,07,12,16,45,23.70
2012,07,12,16,46,23.70
2012,07,12,16,47,23.80
2012,07,12,16,48,23.90
2012,07,12,16,49,24.00
2012,07,12,16,50,24.10
2012,07,12,16,51,24.20
2012,07,12,16,52,24.20
2012,07,12,16,53,24.30
2012,07,12,16,54,24.30
2012,07,12,16,55,24.40
2012,07,12,16,56,24.40
2012,07,12,16,57,24.50
2012,07,12,16,58,24.60
2012,07,12,16,59,24.80
2012,07,12,17,00,24.90
2012,07,12,17,01,25.10
2012,07,12,17,02,25.20
2012,07,12,17,03,25.20
2012,07,12,17,04,25.30
2012,07,12,17,05,25.30
2012,07,12,17,06,25.30
2012,07,12,17,07,25.30
2012,07,12,17,08,25.30
2012,07,12,17,09,25.20
2012,07,12,17,10,25.20
2012,07,12,17,11,25.10
2012,07,12,17,12,25.10
2012,07,12,17,13,25.10
2012,07,12,17,14,25.10
2012,07,12,17,15,25.20
2012,07,12,17,16,25.30
2012,07,12,17,17,25.30
2012,07,12,17,18,25.30
2012,07,12,17,19,25.30